AUA108 LOWI-LOWW

Flight info

Callsign AUA108
Flight time 0h 48m
Altitude 29000
Route RTT DCT NEMAL NEMAL2W
Aircraft A321/M-SDE3FGHIRWY/LB1

Departure

Time 2026-04-26 12:03
Airport Innsbruck Airport (LOWI)

Arrival

Time 2026-04-26 12:52
Airport Vienna International Airport (LOWW)
Time Latitude Longitude Altitude Speed Heading
2026-04-26 11:43 47.25831 11.35109 1904 ft 0 kts 173°
2026-04-26 11:57 47.25827 11.35114 1904 ft 3 kts 147°
2026-04-26 11:57 47.25832 11.35154 1896 ft 8 kts 56°
2026-04-26 11:57 47.25881 11.35219 1901 ft 10 kts 41°
2026-04-26 11:57 47.25924 11.35284 1904 ft 9 kts 16°
2026-04-26 11:58 47.26000 11.35276 1904 ft 11 kts 353°
2026-04-26 11:58 47.26078 11.35250 1899 ft 11 kts 337°
2026-04-26 11:58 47.26102 11.35151 1904 ft 11 kts 265°
2026-04-26 11:58 47.26091 11.35048 1895 ft 10 kts 261°
2026-04-26 11:59 47.26081 11.34954 1904 ft 9 kts 261°
2026-04-26 11:59 47.26075 11.34896 1904 ft 8 kts 261°
2026-04-26 11:59 47.26062 11.34778 1904 ft 13 kts 261°
2026-04-26 11:59 47.26041 11.34598 1904 ft 22 kts 261°
2026-04-26 12:00 47.26012 11.34329 1896 ft 28 kts 261°
2026-04-26 12:00 47.25982 11.34051 1900 ft 27 kts 261°
2026-04-26 12:00 47.25962 11.33868 1898 ft 26 kts 261°
2026-04-26 12:00 47.25935 11.33604 1897 ft 26 kts 261°
2026-04-26 12:01 47.25908 11.33347 1897 ft 24 kts 262°
2026-04-26 12:01 47.25866 11.33208 1898 ft 14 kts 217°
2026-04-26 12:01 47.25848 11.33089 1900 ft 10 kts 312°
2026-04-26 12:01 47.25883 11.33135 1892 ft 8 kts 81°
2026-04-26 12:02 47.25886 11.33168 1904 ft 0 kts 81°
2026-04-26 12:02 47.25915 11.33435 1904 ft 65 kts 81°
2026-04-26 12:03 47.26026 11.34437 1897 ft 130 kts 81°
2026-04-26 12:03 47.26189 11.35946 2220 ft 152 kts 79°
2026-04-26 12:03 47.26373 11.37468 2953 ft 152 kts 78°
2026-04-26 12:03 47.26566 11.39012 3641 ft 154 kts 78°
2026-04-26 12:04 47.26776 11.40577 4204 ft 161 kts 79°
2026-04-26 12:04 47.27009 11.42304 4463 ft 183 kts 79°
2026-04-26 12:04 47.27265 11.44205 4917 ft 192 kts 77°
2026-04-26 12:04 47.27603 11.46119 5492 ft 194 kts 73°
2026-04-26 12:05 47.27971 11.48033 6070 ft 195 kts 73°
2026-04-26 12:05 47.28348 11.49962 6637 ft 196 kts 73°
2026-04-26 12:05 47.28725 11.51911 7163 ft 199 kts 73°
2026-04-26 12:05 47.29103 11.53885 7690 ft 201 kts 73°
2026-04-26 12:06 47.29480 11.55877 8204 ft 203 kts 74°
2026-04-26 12:06 47.29859 11.57886 8706 ft 204 kts 74°
2026-04-26 12:06 47.30244 11.59925 9195 ft 208 kts 74°
2026-04-26 12:06 47.30634 11.61992 9712 ft 211 kts 74°
2026-04-26 12:07 47.31190 11.64062 9974 ft 227 kts 64°
2026-04-26 12:07 47.31908 11.66235 10129 ft 245 kts 63°
2026-04-26 12:07 47.32708 11.68574 10237 ft 266 kts 63°
2026-04-26 12:07 47.33562 11.71061 10587 ft 275 kts 63°
2026-04-26 12:08 47.34445 11.73649 10896 ft 293 kts 63°
2026-04-26 12:08 47.35397 11.76444 11096 ft 317 kts 63°
2026-04-26 12:08 47.36430 11.79451 11242 ft 340 kts 63°
2026-04-26 12:08 47.37526 11.82667 11376 ft 361 kts 63°
2026-04-26 12:09 47.38669 11.86075 11566 ft 379 kts 63°
2026-04-26 12:09 47.39843 11.89607 12041 ft 386 kts 63°
2026-04-26 12:09 47.41037 11.93195 12572 ft 392 kts 62°
2026-04-26 12:09 47.42249 11.96825 13118 ft 396 kts 62°
2026-04-26 12:10 47.43475 12.00483 13699 ft 399 kts 63°
2026-04-26 12:10 47.44706 12.04173 14202 ft 403 kts 62°
2026-04-26 12:10 47.45947 12.07899 14700 ft 405 kts 63°
2026-04-26 12:10 47.47197 12.11652 15150 ft 408 kts 63°
2026-04-26 12:11 47.48447 12.15425 15615 ft 410 kts 63°
2026-04-26 12:11 47.49705 12.19235 16045 ft 414 kts 63°
2026-04-26 12:11 47.50969 12.23069 16495 ft 416 kts 63°
2026-04-26 12:11 47.52241 12.26931 16949 ft 419 kts 63°
2026-04-26 12:12 47.53520 12.30814 17376 ft 421 kts 63°
2026-04-26 12:12 47.54806 12.34717 17803 ft 424 kts 63°
2026-04-26 12:12 47.56104 12.38653 18226 ft 427 kts 63°
2026-04-26 12:12 47.56963 12.41271 18512 ft 428 kts 63°
2026-04-26 12:13 47.58707 12.46611 19013 ft 432 kts 63°
2026-04-26 12:13 47.60017 12.50627 19428 ft 434 kts 63°
2026-04-26 12:13 47.61334 12.54666 19791 ft 437 kts 63°
2026-04-26 12:13 47.62660 12.58725 20232 ft 439 kts 63°
2026-04-26 12:14 47.63992 12.62813 20631 ft 441 kts 63°
2026-04-26 12:14 47.65332 12.66922 21048 ft 443 kts 63°
2026-04-26 12:14 47.66672 12.71050 21440 ft 446 kts 63°
2026-04-26 12:14 47.68019 12.75205 21850 ft 448 kts 63°
2026-04-26 12:15 47.69371 12.79384 22227 ft 451 kts 63°
2026-04-26 12:15 47.70712 12.83531 22596 ft 453 kts 63°
2026-04-26 12:15 47.72074 12.87763 22973 ft 456 kts 63°
2026-04-26 12:15 47.73439 12.92029 23340 ft 459 kts 63°
2026-04-26 12:16 47.74814 12.96323 23699 ft 462 kts 63°
2026-04-26 12:16 47.76200 13.00642 24019 ft 464 kts 63°
2026-04-26 12:16 47.77593 13.04983 24336 ft 467 kts 63°
2026-04-26 12:16 47.78994 13.09345 24654 ft 469 kts 63°
2026-04-26 12:17 47.80398 13.13733 24976 ft 471 kts 63°
2026-04-26 12:17 47.81802 13.18145 25276 ft 473 kts 63°
2026-04-26 12:17 47.83207 13.22569 25578 ft 474 kts 63°
2026-04-26 12:17 47.84615 13.27013 25857 ft 476 kts 63°
2026-04-26 12:18 47.86027 13.31474 26111 ft 477 kts 63°
2026-04-26 12:18 47.87440 13.35959 26367 ft 479 kts 63°
2026-04-26 12:18 47.88857 13.40460 26583 ft 481 kts 63°
2026-04-26 12:18 47.90230 13.45024 26786 ft 484 kts 67°
2026-04-26 12:19 47.91208 13.49831 27017 ft 487 kts 76°
2026-04-26 12:19 47.91710 13.54825 27303 ft 488 kts 84°
2026-04-26 12:19 47.91771 13.59887 27596 ft 488 kts 89°
2026-04-26 12:19 47.91746 13.64936 27900 ft 488 kts 89°
2026-04-26 12:20 47.91720 13.69989 28200 ft 487 kts 89°
2026-04-26 12:20 47.91693 13.75034 28494 ft 487 kts 89°
2026-04-26 12:20 47.91665 13.80075 28767 ft 486 kts 89°
2026-04-26 12:20 47.91634 13.85110 29059 ft 486 kts 89°
2026-04-26 12:21 47.91600 13.90145 29213 ft 484 kts 89°
2026-04-26 12:21 47.91537 14.00112 29225 ft 480 kts 89°
2026-04-26 12:22 47.91459 14.10048 29231 ft 479 kts 90°
2026-04-26 12:22 47.91360 14.19981 29210 ft 479 kts 90°
2026-04-26 12:23 47.91259 14.29917 29207 ft 479 kts 90°
2026-04-26 12:23 47.91155 14.39854 29204 ft 479 kts 90°
2026-04-26 12:24 47.91036 14.49784 29203 ft 479 kts 90°
2026-04-26 12:24 47.90919 14.59711 29205 ft 479 kts 90°
2026-04-26 12:25 47.90724 14.74610 29189 ft 480 kts 90°
2026-04-26 12:25 47.90568 14.84568 29180 ft 482 kts 90°
2026-04-26 12:26 47.90405 14.94567 29182 ft 483 kts 90°
2026-04-26 12:26 47.90251 15.04594 29186 ft 484 kts 90°
2026-04-26 12:27 47.90083 15.14635 29190 ft 485 kts 90°
2026-04-26 12:27 47.89897 15.24685 29193 ft 483 kts 90°
2026-04-26 12:28 47.89800 15.29588 29214 ft 463 kts 90°
2026-04-26 12:28 47.89704 15.34284 29205 ft 444 kts 90°
2026-04-26 12:28 47.89400 15.38754 29204 ft 425 kts 102°
2026-04-26 12:28 47.88435 15.42814 29208 ft 408 kts 117°
2026-04-26 12:29 47.86901 15.46247 29208 ft 390 kts 132°
2026-04-26 12:29 47.84943 15.48902 29205 ft 374 kts 147°
2026-04-26 12:29 47.80247 15.51748 29206 ft 363 kts 175°
2026-04-26 12:30 47.77751 15.51941 29207 ft 357 kts 188°
2026-04-26 12:30 47.75321 15.51336 29197 ft 352 kts 201°
2026-04-26 12:30 47.73073 15.49987 29199 ft 346 kts 214°
2026-04-26 12:31 47.69471 15.45488 29198 ft 335 kts 237°
2026-04-26 12:31 47.68267 15.42617 29185 ft 330 kts 249°
2026-04-26 12:31 47.67476 15.39450 29183 ft 326 kts 260°
2026-04-26 12:31 47.67109 15.36159 29179 ft 322 kts 268°
2026-04-26 12:32 47.67027 15.29535 29177 ft 321 kts 274°
2026-04-26 12:33 47.67299 15.19605 28993 ft 323 kts 274°
2026-04-26 12:33 47.67374 15.16261 28429 ft 326 kts 275°
2026-04-26 12:33 47.67684 15.12935 27761 ft 327 kts 285°
2026-04-26 12:33 47.68415 15.09735 27110 ft 329 kts 295°
2026-04-26 12:34 47.69563 15.06800 26476 ft 331 kts 307°
2026-04-26 12:34 47.71113 15.04258 25851 ft 334 kts 318°
2026-04-26 12:34 47.73002 15.02229 25242 ft 338 kts 329°
2026-04-26 12:34 47.75154 15.00802 24655 ft 341 kts 340°
2026-04-26 12:35 47.77487 15.00055 24060 ft 346 kts 352°
2026-04-26 12:35 47.79902 15.00061 23420 ft 350 kts
2026-04-26 12:35 47.82293 15.00839 22744 ft 355 kts 15°
2026-04-26 12:35 47.84541 15.02404 22095 ft 361 kts 28°
2026-04-26 12:36 47.86537 15.04707 21443 ft 366 kts 41°
2026-04-26 12:36 47.88157 15.07654 20805 ft 371 kts 54°
2026-04-26 12:36 47.89301 15.11126 20175 ft 376 kts 68°
2026-04-26 12:36 47.89886 15.14939 19574 ft 381 kts 80°
2026-04-26 12:37 47.90075 15.18878 18977 ft 382 kts 85°
2026-04-26 12:37 47.90089 15.22838 18381 ft 382 kts 88°
2026-04-26 12:37 47.90000 15.26794 17711 ft 382 kts 89°
2026-04-26 12:37 47.89871 15.30744 17049 ft 381 kts 89°
2026-04-26 12:38 47.89746 15.34686 16419 ft 381 kts 89°
2026-04-26 12:38 47.89382 15.38600 15791 ft 385 kts 104°
2026-04-26 12:38 47.88245 15.42216 15184 ft 389 kts 123°
2026-04-26 12:38 47.86528 15.45391 14598 ft 408 kts 127°
2026-04-26 12:39 47.85170 15.49130 14018 ft 431 kts 106°
2026-04-26 12:39 47.84486 15.53486 13348 ft 432 kts 93°
2026-04-26 12:39 47.84531 15.57859 12830 ft 426 kts 80°
2026-04-26 12:39 47.84866 15.62233 12320 ft 424 kts 80°
2026-04-26 12:40 47.85205 15.66585 11809 ft 422 kts 80°
2026-04-26 12:40 47.85545 15.70910 11311 ft 419 kts 80°
2026-04-26 12:40 47.85887 15.75206 10834 ft 416 kts 80°
2026-04-26 12:40 47.86228 15.79474 10365 ft 413 kts 80°
2026-04-26 12:41 47.86558 15.83654 9919 ft 400 kts 80°
2026-04-26 12:41 47.86875 15.87654 9761 ft 378 kts 80°
2026-04-26 12:41 47.87174 15.91434 9627 ft 358 kts 80°
2026-04-26 12:41 47.87455 15.95022 9506 ft 340 kts 79°
2026-04-26 12:42 47.87719 15.98437 9374 ft 323 kts 79°
2026-04-26 12:42 47.87970 16.01683 9162 ft 309 kts 80°
2026-04-26 12:42 47.88217 16.04830 8879 ft 304 kts 79°
2026-04-26 12:42 47.88465 16.07942 8581 ft 302 kts 79°
2026-04-26 12:43 47.88712 16.11048 8294 ft 301 kts 80°
2026-04-26 12:43 47.88954 16.14139 8025 ft 299 kts 80°
2026-04-26 12:43 47.89189 16.17204 7746 ft 297 kts 81°
2026-04-26 12:43 47.89420 16.20262 7484 ft 296 kts 81°
2026-04-26 12:44 47.89649 16.23297 7225 ft 294 kts 81°
2026-04-26 12:44 47.89872 16.26311 6966 ft 292 kts 81°
2026-04-26 12:44 47.90097 16.29319 6714 ft 293 kts 79°
2026-04-26 12:44 47.90329 16.32375 6439 ft 298 kts 79°
2026-04-26 12:45 47.90558 16.35441 6166 ft 295 kts 79°
2026-04-26 12:45 47.90780 16.38459 5889 ft 292 kts 78°
2026-04-26 12:45 47.91001 16.41444 5606 ft 287 kts 79°
2026-04-26 12:45 47.91218 16.44394 5326 ft 285 kts 79°
2026-04-26 12:46 47.91432 16.47297 5058 ft 279 kts 79°
2026-04-26 12:46 47.91638 16.50117 4763 ft 266 kts 79°
2026-04-26 12:46 47.91764 16.51891 4568 ft 253 kts 79°
2026-04-26 12:46 47.91941 16.54410 4305 ft 236 kts 79°
2026-04-26 12:47 47.92104 16.56728 4080 ft 215 kts 78°
2026-04-26 12:47 47.92282 16.58879 3769 ft 202 kts 72°
2026-04-26 12:47 47.92950 16.60529 3439 ft 179 kts 31°
2026-04-26 12:47 47.94397 16.61539 3137 ft 170 kts 17°
2026-04-26 12:48 47.95514 16.62128 3057 ft 170 kts 15°
2026-04-26 12:48 47.96632 16.62701 3007 ft 170 kts 15°
2026-04-26 12:48 47.97391 16.63089 2932 ft 170 kts 16°
2026-04-26 12:48 47.98510 16.63400 2795 ft 158 kts 357°
2026-04-26 12:49 47.99555 16.63062 2559 ft 151 kts 343°
2026-04-26 12:49 48.00515 16.62669 2382 ft 145 kts 346°
2026-04-26 12:49 48.01437 16.62275 2166 ft 133 kts 345°
2026-04-26 12:49 48.02325 16.61896 1962 ft 134 kts 347°
2026-04-26 12:50 48.03202 16.61520 1780 ft 128 kts 344°
2026-04-26 12:50 48.04035 16.61170 1583 ft 122 kts 345°
2026-04-26 12:50 48.04875 16.60818 1456 ft 126 kts 346°
2026-04-26 12:50 48.05702 16.60470 1294 ft 123 kts 346°
2026-04-26 12:51 48.06531 16.60124 1112 ft 125 kts 345°
2026-04-26 12:51 48.07398 16.59750 957 ft 133 kts 346°
2026-04-26 12:51 48.08274 16.59377 763 ft 131 kts 346°
2026-04-26 12:51 48.09145 16.59017 623 ft 128 kts 345°
2026-04-26 12:52 48.09896 16.58698 613 ft 85 kts 344°
2026-04-26 12:52 48.10286 16.58536 616 ft 35 kts 345°
2026-04-26 12:52 48.10503 16.58446 617 ft 37 kts 343°
2026-04-26 12:52 48.10743 16.58265 619 ft 38 kts 316°
2026-04-26 12:53 48.10868 16.58069 617 ft 24 kts 314°
2026-04-26 12:53 48.10982 16.57898 620 ft 23 kts 315°
2026-04-26 12:53 48.11110 16.57766 622 ft 23 kts 346°
2026-04-26 12:53 48.11264 16.57703 618 ft 23 kts 344°
2026-04-26 12:54 48.11422 16.57637 624 ft 24 kts 344°
2026-04-26 12:54 48.11535 16.57540 621 ft 15 kts 283°
2026-04-26 12:54 48.11468 16.57441 610 ft 14 kts 203°
2026-04-26 12:54 48.11432 16.57376 610 ft 6 kts 291°
2026-04-26 12:55 48.11472 16.57247 620 ft 20 kts 297°
2026-04-26 12:55 48.11537 16.57049 622 ft 22 kts 296°
2026-04-26 12:55 48.11604 16.56846 619 ft 22 kts 296°
2026-04-26 12:55 48.11655 16.56688 610 ft 8 kts 295°
2026-04-26 12:56 48.11690 16.56640 617 ft 7 kts 10°
2026-04-26 12:56 48.11729 16.56670 610 ft 5 kts 26°
2026-04-26 12:56 48.11739 16.56678 610 ft 1 kts 26°
2026-04-26 12:56 48.11741 16.56679 610 ft 0 kts 26°